{"data":{"norad_id":59582,"intl_designator":"2024-076U","name":"STARLINK-31701","alt_names":[],"object_type":"PAYLOAD","status":"ACTIVE","operator":null,"country":"US","launch_date":"2024-04-23","launch_site_code":"AFETR","launch_vehicle":null,"mission":null,"orbit_class":"UNKNOWN","rcs_meters":null,"size_class":null,"mass_kg":null,"dimensions":null,"purposes":["comms"],"wikipedia_slug":null,"has_3d_model":false,"image_url":null,"decayed_at":null,"tle_current":{"epoch":"2026-05-25T03:14:27.931200Z","epoch_age_seconds":59565,"freshness":"FRESH","line1":"1 59582U 24076U   26145.13504550  .00049201  00000+0  17793-2 0  9993","line2":"2 59582  43.0003 297.2996 0001044  91.3907 268.7064 15.27695844118108","mean_motion":15.27695844,"eccentricity":0.0001044,"inclination_deg":43.0003,"raan_deg":297.2996,"arg_perigee_deg":91.3907,"mean_anomaly_deg":268.7064,"bstar":0.0017793,"rev_number":11810,"period_min":94.259600538653,"perigee_km":481.9859677322,"apogee_km":483.41851096538,"semimajor_km":6860.8392393488,"source":"CELESTRAK","updated_at":"2026-05-25T13:38:18.988303Z"}}}